ATLAS 5 CENTAUR DEB, 46865

Orbit data source: Space-Track

ATLAS 5 CENTAUR DEB, 46865 is space debris in HEO originally from a launch on Wed, 17 Oct 2018 UTC launched from the Air Force Eastern Test Range (AFETR). Debris objects in space refer to the collection of defunct objects orbiting the Earth. Examples of debris include non-operational satellites, rocket bodies, and fragments generated from explosions, collisions, or faulty payload assembly.

Loading next visibility...
Identifier
46865, 2018-079DW
Orbit
HEO
Country
Flag of USUS
Related business
Flag of USUnited Launch Alliance/Lockheed Martin (US)
Manufacturer
ULA Decatur
Mission
Spacecraft
Bus & Motor
Unknown
Mass
Unknown
Launch date (UTC)
2018-10-17 (8 years ago)
Launch vehicle
Unknown
Launch site
Air Force Eastern Test Range (AFETR)
Object type
Payload
Rocket body
Debris
Shape & HBR
Unknown shape, 1.1 m
Radar Cross Section
RCS unknown

Expand to show TLE details & history
Last TLE update: 3 days ago

TLE from 3 days ago
0 ATLAS 5 CENTAUR DEB
1 46865U 18079DW  26170.75250418 -.00000115  00000-0  00000-0 0  9990
2 46865  13.1256  30.0201 4525316 333.4058   9.1617  1.88838597 38829
Epoch: 2026-06-19T18:03Z
TLE epoch observation values (Epoch: 2026-06-19T18:03:36.361Z)
Latitude
0.00009°
Longitude
-148.86898°
Altitude
9,301.122 km
Speed
6.036 km/s
True Right ascension
02h 00m 02s
True Declination
0° 00' 00"
Sunlit
Object was in daylight at epoch
Visualization orbit readout
Latitude
Unknown
Longitude
Unknown
Altitude
Unknown
Speed
Unknown
Apparent Right ascension
Unknown
Apparent Declination
Unknown
Sunlit
N/A
Visualization observer readout
Local Sidereal Time
21:43:03
Azimuth
Unknown
Elevation
Unknown
Doppler factor
Unknown
Orbital elements
Apogee altitude
33,785.504 km
Perigee altitude
8,759.795 km
Semi-major axis
27,650.786 km
Eccentricity
0.45253
Inclination
13.1256°
RAAN
30.0201°
Arg. of periapsis
333.4058°
True anomaly
26.64795°
Mean anomaly
9.1617°
Eccentric anomaly
16.54538°
Mean motion
0.47204 °/min
Orbital period
762.64 mins
BSTAR
0
Loading maneuver chart data...
Computing Atmospheric mass density...

Documentation

Showing up to 5 results
|